Location: Flotzheim
(48.8375°N, 10.8136°E)
Time: 04:04:29
(UTC+00:00)

Cosmos 1937 Rocket - Pass Details

Date: 23 January 2021
Orbit: 746 x 780 km, 74.1° (Epoch: 26 February)

Event Time Altitude Azimuth Distance (km) Brightness Sun altitude
Rises 18:39:06 0° 205° (SSW) 3,244 7.1 -25.9°
Reaches altitude 10° 18:41:28 10° 207° (SSW) 2,324 6.3 -26.2°
Maximum altitude 18:46:46 78° 294° (WNW) 803 3.5 -27.1°
Enters shadow 18:47:27 66° 356° (N) 852 3.6 -27.2°
